星链-32723 (STARLINK-32723)

导读 | 星芒AI

STARLINK-32723 是 SpaceX Starlink 卫星互联网项目中的一颗低轨卫星,属于第三代 Starlink(v1.5 或 v2)系列。该卫星由猎鹰9号火箭发射入轨,旨在为全球用户提供高速、低延迟的宽带互联网服务。它运行在约 550 公里的轨道高度,采用先进推进系统和激光通信技术,以提升网络性能和卫星间通信效率。STARLINK-32723 是 SpaceX 扩展全球卫星网络、实现互联网覆盖目标的重要组成部分。

基本信息
目录编号:
62449
目录名称:
STARLINK-32723
国际标识:
2024-251T
轨道中心:
EARTH
卫星名称:
星链-32723
卫星全名:
星链-32723 (STARLINK-32723)
卫星状态:
在轨 (已飞行313 天)
发射日期:
2024-12-29 UTC
国别 :
美国 (US)
星等 :
--
轨道信息
数据来源 国际轨道数据
星历时间: 2025-11-06T23:53:32+0800
1天前
查看轨道信息
半长轴: 6853.261km
偏心率: 0.0002774
轨道倾角: 53.154°
近地点辐角 93.454°
升交点赤经 186.660°
平近点角 266.678°
近地点: 473.224km
远地点: 477.028km
周期: 94.103分钟
每日圈数: 15.302307
详细信息
固有亮度:
5
最大亮度:
2.5
卫星平台:
Starlink V1.0
覆盖范围:
全球
运营商:
太空探索技术公司
运营商所在国:
美国
制造商(研发单位):
太空探索技术公司
制造商所在国:
美国
使用方式:
暂无
卫星简介
Starlink 计划是 SpaceX 推出的全球卫星互联网项目,通过发射低轨道卫星,为全球尤其是偏远地区提供高速、低延迟的互联网服务。自 2019 年起,Starlink 已部署数千颗卫星,旨在缩小全球数字鸿沟,推动互联网普及。该项目还为军事、航空等行业提供通信支持,带来广泛经济效益。
2D轨道图
3D轨道图
轨道高度分析图
轨道倾角分析图
轨道综合分析图
查看轨道综合分析图